sat.trackr.live / text

‹ back to catalog

STARLINK-30544

NORAD 58055 · 2023-158E

PAYLOAD ACTIVE UNKNOWN

§ Identity

Operator
Country
US
Launch date
2023-10-13
Launch site
AFETR
Launch vehicle
Mass (kg)
RCS (m²)

Purposes: comms

External: N2YO · Heavens-Above · Gunter

§ Orbital elements

Epoch: 2026-05-25T04:35:57.723648Z

Period
94.27 min
Inclination
42.9953°
Eccentricity
0.0000468
Mean motion
15.27573405 rev/d
Perigee alt
482.7 km
Apogee alt
483.4 km
Semi-major
6,861.2 km
B*
-1.0686e-5
RAAN
314.6979°
Arg perigee
62.0294°
Mean anomaly
298.0605°
Rev number
14,527

§ Raw data

STARLINK-305441 58055U 23158E   26145.19164032 -.00000556  00000+0 -10686-4 0  99982 58055  42.9953 314.6979 0000468  62.0294 298.0605 15.27573405145275

JSON: /api/v1/satellites/58055 · /tle

For live sub-satellite position, see the globe view (requires WebGL).

§ Visibility from observer

Set your observer location to see the next 7 days of passes ≥ 10°. The values pass through the URL so the page stays shareable.

No JS? Fill the form by hand. The geolocation button needs JavaScript.